RH
28 31 40 46 46 46 44 40 35 33 33 31 29 32 35 42 49 48 47 49 50 54 56 52 52 57 59 59 64 73 76 74 73 69 65 65 66 67 68 65 62 61 56 52 48 44 38 33 30 29 27 29 32 33 30 26 22 19 18 18 18 20 22
31 37 48 52 51 52 48 41 38 37 36 34 32 32 32 38 50 53 51 52 53 58 63 60 57 60 63 63 63 71 77 76 78 78 72 71 73 73 72 69 65 63 60 55 51 46 40 34 32 30 28 30 33 34 32 27 22 18 18 18 18 18 20
32 37 44 46 46 47 44 41 41 38 37 37 35 36 35 37 48 56 55 54 56 62 68 66 63 64 68 67 65 71 78 78 82 86 81 78 81 80 77 73 69 66 62 59 55 49 43 38 34 32 30 32 34 35 34 29 23 19 18 18 18 18 18
28 32 38 42 43 43 42 41 40 38 38 39 36 37 39 39 47 57 57 55 59 66 70 70 68 69 73 72 68 73 80 80 83 90 89 86 87 86 83 78 74 70 67 64 60 53 47 42 38 35 34 35 37 37 36 32 25 21 20 20 19 19 19
18 21 28 34 38 40 40 38 39 40 40 40 37 37 40 41 46 55 59 57 61 69 72 73 73 75 77 76 71 74 82 82 86 94 94 92 91 89 88 84 79 76 73 69 64 57 51 46 41 39 38 38 39 39 38 34 27 23 22 22 21 19 19
15 16 19 24 28 33 36 36 38 40 41 41 39 36 38 42 46 53 59 59 63 72 76 76 79 81 80 78 74 77 83 84 88 97 97 96 94 91 91 89 84 81 78 74 68 61 55 50 46 43 43 43 42 41 39 35 29 25 24 23 23 21 20
17 17 19 22 24 26 30 32 35 38 40 41 39 36 35 40 45 52 58 60 66 76 81 82 85 86 82 79 79 82 85 85 91 98 98 97 97 94 93 91 88 86 82 78 73 65 58 54 51 48 47 47 45 43 41 36 31 28 26 25 25 24 22
19 20 20 22 24 25 27 30 33 36 39 39 39 37 35 37 45 53 57 62 71 81 86 87 90 88 84 83 84 85 87 89 94 98 99 98 98 96 95 94 91 89 86 82 78 69 62 59 56 54 53 51 48 44 41 38 34 32 30 27 27 25 24
22 23 22 22 24 27 30 32 33 35 37 38 38 37 35 36 44 52 57 64 76 87 91 92 92 92 89 87 88 89 92 95 97 98 99 99 99 98 98 96 94 91 89 87 83 74 67 63 60 58 56 53 50 46 42 38 34 32 32 31 29 25 25
24 26 26 26 26 28 31 33 34 36 36 37 37 37 36 36 41 52 60 67 80 93 96 94 95 96 94 93 94 96 98 100 99 99 99 99 99 99 99 98 95 93 91 90 86 78 71 66 63 60 58 55 52 48 44 38 34 34 33 32 30 26 27
28 29 30 31 30 31 32 33 35 36 36 37 37 35 34 35 41 53 61 70 85 97 98 96 98 97 96 98 99 100 100 100 100 100 100 100 100 99 99 98 97 95 93 91 87 80 73 68 64 61 60 58 53 49 44 38 34 35 34 33 32 28 28
32 31 32 32 32 32 32 32 35 36 36 37 35 32 33 38 47 56 63 73 91 99 97 98 100 97 97 100 101 101 101 101 100 100 100 101 101 100 99 98 98 97 94 92 88 82 74 69 65 64 62 60 54 49 45 39 35 36 35 35 35 31 28
32 32 32 32 32 32 32 33 36 36 36 37 35 33 39 47 55 59 64 78 95 100 97 99 101 96 96 100 101 101 101 100 100 100 100 100 101 100 101 100 99 98 95 92 89 83 76 70 67 66 65 62 56 50 45 39 36 36 37 38 38 33 30
32 33 33 33 33 33 33 34 36 36 37 37 37 39 47 56 60 61 68 84 98 99 96 99 101 97 97 100 101 101 101 100 100 100 99 100 100 100 100 100 100 100 99 95 90 84 77 73 71 70 68 64 59 51 44 40 38 39 41 42 40 36 32
33 33 33 34 35 34 34 36 37 38 39 41 43 47 55 61 62 64 75 91 100 97 95 99 100 98 98 100 100 100 101 100 99 99 99 100 99 98 99 99 100 101 101 98 93 87 81 76 75 74 71 68 62 52 44 41 41 43 43 43 40 36 32
34 35 36 37 39 38 37 39 40 41 45 49 51 54 60 62 63 70 84 95 98 96 96 100 101 98 98 100 100 99 100 100 99 99 99 99 99 99 99 100 101 102 102 100 97 91 86 82 80 77 74 72 64 52 44 43 44 45 44 43 40 35 33
37 39 41 43 43 44 43 43 44 48 53 57 57 59 62 64 69 81 92 95 96 98 100 101 101 99 98 100 100 98 98 100 100 100 99 98 98 98 99 100 102 103 102 100 98 94 91 88 85 80 77 73 64 51 44 44 46 45 44 44 41 38 35
44 46 49 50 50 51 49 48 52 57 61 61 61 61 64 70 81 92 95 94 96 101 101 101 101 100 99 100 100 97 98 100 100 99 99 99 99 98 98 99 100 102 102 100 98 96 93 91 88 84 81 74 63 51 46 46 47 45 44 46 45 42 40
52 54 55 54 55 56 56 55 57 59 61 62 62 63 71 82 93 97 95 95 99 101 100 101 102 100 99 101 100 99 99 101 100 98 99 100 101 100 98 97 98 100 101 100 99 96 94 93 91 89 85 77 64 53 48 48 47 46 48 50 48 46 44
59 59 58 57 58 59 59 58 57 59 61 62 64 72 85 95 99 97 96 98 100 100 99 100 102 101 101 101 101 100 100 101 100 99 100 102 101 100 98 98 99 100 100 100 99 96 94 94 92 92 90 81 67 56 50 49 49 49 52 53 51 49 47
61 60 58 58 60 61 58 56 58 61 61 64 73 87 97 100 99 98 98 99 100 99 98 99 101 101 100 101 100 99 99 101 100 100 101 101 100 99 99 99 100 100 99 99 97 95 94 94 93 93 92 83 69 58 52 51 52 54 55 56 54 51 47
61 60 59 58 60 61 58 57 59 61 63 73 87 99 101 99 98 98 99 100 100 99 98 99 100 99 99 100 99 98 98 99 100 100 100 101 100 100 100 100 101 100 98 96 95 93 93 93 94 95 92 81 69 60 55 53 57 60 59 57 56 54 49
60 59 59 60 60 61 60 59 60 64 74 88 98 101 100 98 97 98 100 101 100 99 99 100 100 99 99 99 100 99 98 99 100 100 100 101 101 101 100 100 100 99 98 96 96 95 94 94 95 95 90 79 70 63 58 56 59 62 61 59 59 56 50
60 60 61 61 60 59 61 62 66 76 90 99 101 100 101 100 98 99 101 101 100 100 100 100 100 100 99 99 100 100 99 99 100 100 100 101 101 101 100 100 99 98 97 98 97 96 95 95 96 94 88 80 72 66 61 59 61 62 61 60 60 58 54
62 61 61 60 59 60 65 70 79 90 98 100 100 100 101 101 100 99 99 98 99 100 100 100 100 100 98 99 100 101 100 100 100 99 99 101 101 100 99 99 98 98 98 98 98 98 98 97 97 94 87 81 76 72 67 64 63 62 61 60 60 61 59
64 62 62 62 63 68 75 82 92 99 99 98 100 100 100 100 100 98 98 98 99 100 99 99 99 99 99 100 100 100 101 100 99 99 99 100 100 99 98 98 97 98 99 98 99 100 100 99 97 93 86 81 79 76 71 67 65 64 62 60 60 62 62
68 67 69 71 73 77 85 92 99 101 100 99 100 100 100 100 99 98 98 98 99 100 100 100 99 98 99 100 100 100 100 100 99 99 99 99 99 98 98 98 97 98 99 99 100 101 100 98 95 90 84 81 79 77 74 72 69 66 64 62 61 62 62
76 76 77 79 80 85 92 97 99 100 101 100 100 101 101 100 98 97 97 97 99 100 100 100 100 98 99 100 101 100 100 100 100 100 100 100 99 99 99 98 98 98 99 99 100 101 100 97 92 87 82 79 78 79 78 76 73 70 68 66 65 64 63
81 81 81 81 84 91 98 98 98 100 101 100 101 101 101 99 99 98 97 96 98 99 100 100 100 98 99 100 101 100 100 100 101 101 101 101 100 100 99 99 98 98 98 99 101 101 98 94 89 84 81 80 78 78 79 78 76 75 73 70 69 68 66
81 81 81 84 90 98 101 98 97 100 100 100 101 101 100 100 100 100 99 99 99 99 100 101 100 98 98 100 100 100 99 100 100 101 101 101 100 99 99 98 97 97 98 100 100 98 93 89 85 83 82 80 78 77 78 79 77 76 74 71 71 70 69
81 80 82 89 97 101 100 97 98 100 100 100 101 101 100 100 100 100 100 100 100 100 101 101 100 98 99 100 100 100 99 99 100 101 101 101 100 98 98 98 97 98 100 99 97 92 89 86 85 83 82 80 77 77 79 79 78 76 75 73 72 72 71
81 82 88 96 100 101 99 97 98 100 100 99 99 99 100 100 100 100 100 100 100 100 101 101 100 99 99 99 100 99 99 100 100 101 101 101 100 99 99 99 100 100 100 97 93 89 87 86 84 82 81 80 78 78 79 79 79 79 78 75 72 71 72
81 86 94 100 100 100 99 97 97 99 100 99 98 99 100 99 98 99 100 100 99 100 100 99 99 98 98 98 99 100 100 100 100 100 100 100 100 100 101 101 101 99 96 93 90 88 86 84 82 80 80 80 80 80 80 81 81 81 80 78 75 73 73
82 91 99 101 100 100 100 99 98 99 100 99 99 99 100 99 98 99 99 99 99 99 98 98 98 99 99 99 100 100 101 100 100 99 100 100 100 101 101 100 99 96 93 90 88 86 84 81 78 77 76 76 78 79 79 79 81 81 82 82 81 78 78
88 96 100 101 100 100 100 99 100 100 100 99 99 99 100 100 100 100 101 100 100 100 99 99 99 100 100 100 100 101 101 100 100 100 100 100 101 100 99 97 93 90 87 85 83 81 79 77 76 75 76 76 77 77 77 78 80 81 83 84 85 85 84
94 97 98 98 99 100 100 100 100 100 100 100 100 100 100 101 101 101 101 101 100 100 100 100 100 100 100 100 100 100 100 100 100 99 98 98 97 96 93 90 87 84 83 81 79 78 77 76 76 77 77 78 78 78 78 80 82 85 87 87 88 89 89